Location: Bukit Lungun
(2.6833°N, 113.9667°E)
Time: 11:44:53
(UTC+00:00)

Nadezhda 3 Rocket - Pass Details

Date: 02 March 2021
Orbit: 956 x 999 km, 82.9° (Epoch: 20 April)

Event Time Altitude Azimuth Distance (km) Brightness Sun altitude
Rises 12:00:12 0° 353° (N) 3,706 7.0 -21.2°
Reaches altitude 10° 12:02:44 10° 352° (N) 2,758 6.4 -21.8°
Maximum altitude 12:09:03 75° 267° (W) 1,029 4.2 -23.4°
Drops below altitude 10° 12:15:22 10° 182° (S) 2,749 6.4 -24.9°
Sets 12:17:53 0° 180° (S) 3,694 7.1 -25.5°
